| time (UTC) | temp F | wind direction | speed MPH | gust MPH | rain 1hr in | rain 24hr in | rain mn in | humidity % | barometer mb |
| 20260905213007 | 85 | 51 | 1.0 | 6.0 | 0.00 | 0.00 | 0.00 | 73 | 1013.0 |
| 20260905211508 | 86 | 281 | 2.0 | 7.0 | 0.00 | 0.00 | 0.00 | 72 | 1012.8 |
| 20260905210009 | 89 | 238 | 1.0 | 3.0 | 0.00 | 0.00 | 0.00 | 68 | 1012.4 |
| 20260905204510 | 89 | 246 | 1.0 | 2.0 | 0.00 | 0.00 | 0.00 | 69 | 1012.8 |
| 20260905203011 | 91 | 240 | 1.0 | 2.0 | 0.00 | 0.00 | 0.00 | 68 | 1012.5 |
| 20260905201512 | 91 | 229 | 0.0 | 2.0 | 0.00 | 0.00 | 0.00 | 69 | 1012.3 |
| 20260905200014 | 91 | 248 | 1.0 | 2.0 | 0.00 | 0.00 | 0.00 | 69 | 1012.5 |
| 20260905194512 | 91 | 231 | 0.0 | 2.0 | 0.00 | 0.00 | 0.00 | 66 | 1012.9 |
| 20260905193020 | 91 | 291 | 0.0 | 2.0 | 0.00 | 0.00 | 0.00 | 66 | 1012.5 |
| 20260905191510 | 90 | 197 | 0.0 | 2.0 | 0.00 | 0.00 | 0.00 | 69 | 1013.0 |
| 20260905190015 | 87 | 271 | 0.0 | 2.0 | 0.00 | 0.01 | 0.00 | 73 | 1013.2 |
| 20260905184521 | 85 | 279 | 0.0 | 2.0 | 0.00 | 0.10 | 0.00 | 75 | 1013.1 |
| 20260905183019 | 85 | 279 | 0.0 | 2.0 | 0.00 | 0.17 | 0.00 | 73 | 1013.2 |
| 20260905181515 | 86 | 262 | 1.0 | 4.0 | 0.00 | 0.18 | 0.00 | 71 | 1013.8 |
| 20260905180013 | 88 | 319 | 1.0 | 5.0 | 0.00 | 0.23 | 0.00 | 66 | 1013.7 |
| 20260905174527 | 89 | 297 | 0.0 | 2.0 | 0.00 | 0.23 | 0.00 | 65 | 1013.8 |
| 20260905173016 | 90 | 165 | 1.0 | 4.0 | 0.00 | 0.23 | 0.00 | 67 | 1013.7 |
| 20260905171514 | 89 | 175 | 2.0 | 5.0 | 0.00 | 0.23 | 0.00 | 70 | 1013.8 |
| 20260905170014 | 90 | 102 | 1.0 | 7.0 | 0.00 | 0.23 | 0.00 | 68 | 1014.3 |
| 20260905164516 | 92 | 176 | 0.0 | 2.0 | 0.00 | 0.23 | 0.00 | 66 | 1014.1 |
| 20260905163016 | 91 | 286 | 1.0 | 3.0 | 0.00 | 0.23 | 0.00 | 66 | 1014.4 |
| 20260905161516 | 91 | 260 | 0.0 | 2.0 | 0.00 | 0.23 | 0.00 | 68 | 1014.5 |
| 20260905160038 | 90 | 227 | 1.0 | 6.0 | 0.00 | 0.23 | 0.00 | 70 | 1014.8 |
| 20260905154515 | 89 | 217 | 0.0 | 2.0 | 0.00 | 0.23 | 0.00 | 73 | 1014.9 |
| 20260905153018 | 88 | 165 | 0.0 | 2.0 | 0.00 | 0.23 | 0.00 | 74 | 1015.0 |
| 20260905151521 | 88 | 291 | 0.0 | 2.0 | 0.00 | 0.23 | 0.00 | 75 | 1015.1 |
| 20260905150026 | 88 | 243 | 0.0 | 2.0 | 0.00 | 0.23 | 0.00 | 75 | 1014.9 |
| 20260905144538 | 88 | 237 | 1.0 | 2.0 | 0.00 | 0.23 | 0.00 | 76 | 1014.8 |
| 20260905143024 | 87 | 236 | 0.0 | 2.0 | 0.00 | 0.23 | 0.00 | 77 | 1014.9 |
| 20260905141541 | 86 | 181 | 0.0 | 2.0 | 0.00 | 0.23 | 0.00 | 79 | 1015.0 |
| 20260905140020 | 85 | 215 | 0.0 | 2.0 | 0.00 | 0.23 | 0.00 | 80 | 1015.0 |
| 20260905134522 | 84 | 160 | 1.0 | 3.0 | 0.00 | 0.23 | 0.00 | 79 | 1014.9 |
| 20260905133016 | 82 | 178 | 0.0 | 2.0 | 0.00 | 0.23 | 0.00 | 82 | 1015.3 |
| 20260905131535 | 80 | 113 | 0.0 | 2.0 | 0.00 | 0.23 | 0.00 | 85 | 1015.3 |
| 20260905130007 | 79 | 236 | 0.0 | 2.0 | 0.00 | 0.23 | 0.00 | 85 | 1015.2 |
| 20260905124509 | 79 | 236 | 0.0 | 2.0 | 0.00 | 0.23 | 0.00 | 86 | 1015.2 |
| 20260905123016 | 80 | 137 | 0.0 | 2.0 | 0.00 | 0.23 | 0.00 | 88 | 1015.4 |
| 20260905121520 | 79 | 161 | 0.0 | 2.0 | 0.00 | 0.23 | 0.00 | 92 | 1015.1 |
| 20260905120004 | 79 | 66 | 0.0 | 0.0 | 0.00 | 0.23 | 0.00 | 93 | 1014.8 |
| 20260905114507 | 79 | 66 | 0.0 | 2.0 | 0.00 | 0.23 | 0.00 | 94 | 1015.0 |
| 20260905113016 | 78 | 34 | 0.0 | 0.0 | 0.00 | 0.23 | 0.00 | 93 | 1014.5 |
| 20260905111526 | 78 | 34 | 0.0 | 0.0 | 0.00 | 0.23 | 0.00 | 93 | 1014.5 |
| 20260905110030 | 78 | 34 | 0.0 | 0.0 | 0.00 | 0.23 | 0.00 | 93 | 1014.4 |
| 20260905104506 | 78 | 34 | 0.0 | 0.0 | 0.00 | 0.23 | 0.00 | 93 | 1014.2 |
| 20260905103023 | 78 | 34 | 0.0 | 0.0 | 0.00 | 0.23 | 0.00 | 93 | 1014.0 |
| 20260905101521 | 78 | 34 | 0.0 | 0.0 | 0.00 | 0.23 | 0.00 | 93 | 1014.0 |
| 20260905100026 | 78 | 34 | 0.0 | 0.0 | 0.00 | 0.23 | 0.00 | 93 | 1013.9 |
| 20260905094530 | 78 | 34 | 0.0 | 0.0 | 0.00 | 0.23 | 0.00 | 93 | 1013.8 |
| 20260905093010 | 78 | 34 | 0.0 | 0.0 | 0.00 | 0.23 | 0.00 | 93 | 1013.6 |
| 20260905091516 | 78 | 34 | 0.0 | 0.0 | 0.00 | 0.23 | 0.00 | 93 | 1013.5 |
| 20260905090024 | 78 | 34 | 0.0 | 0.0 | 0.00 | 0.23 | 0.00 | 93 | 1013.6 |
| 20260905084528 | 78 | 34 | 0.0 | 0.0 | 0.00 | 0.23 | 0.00 | 92 | 1013.6 |
| 20260905083010 | 78 | 34 | 0.0 | 0.0 | 0.00 | 0.23 | 0.00 | 92 | 1013.7 |
| 20260905081512 | 78 | 34 | 0.0 | 0.0 | 0.00 | 0.23 | 0.00 | 92 | 1013.7 |
| 20260905080023 | 78 | 34 | 0.0 | 0.0 | 0.00 | 0.23 | 0.00 | 92 | 1013.8 |
| 20260905074537 | 79 | 34 | 0.0 | 0.0 | 0.00 | 0.23 | 0.00 | 92 | 1013.9 |
| 20260905073050 | 79 | 34 | 0.0 | 0.0 | 0.00 | 0.23 | 0.00 | 92 | 1013.9 |
| 20260905071511 | 79 | 34 | 0.0 | 0.0 | 0.00 | 0.23 | 0.00 | 92 | 1013.8 |
| 20260905070018 | 79 | 34 | 0.0 | 0.0 | 0.00 | 0.23 | 0.00 | 92 | 1014.1 |
| 20260905064525 | 79 | 34 | 0.0 | 0.0 | 0.00 | 0.23 | 0.00 | 92 | 1014.3 |
| 20260905063030 | 79 | 34 | 0.0 | 0.0 | 0.00 | 0.23 | 0.00 | 92 | 1014.5 |
| 20260905061532 | 79 | 34 | 0.0 | 0.0 | 0.00 | 0.23 | 0.00 | 91 | 1014.7 |
| 20260905060018 | 79 | 34 | 0.0 | 0.0 | 0.00 | 0.23 | 0.00 | 91 | 1015.1 |
| 20260905054524 | 79 | 34 | 0.0 | 0.0 | 0.00 | 0.23 | 0.00 | 91 | 1015.2 |
| 20260905053034 | 79 | 34 | 0.0 | 0.0 | 0.00 | 0.23 | 0.00 | 91 | 1015.2 |
| 20260905051531 | 79 | 34 | 0.0 | 0.0 | 0.00 | 0.23 | 0.00 | 91 | 1015.5 |
| 20260905050036 | 78 | 34 | 0.0 | 0.0 | 0.00 | 0.23 | 0.00 | 90 | 1015.5 |
| 20260905044523 | 78 | 34 | 0.0 | 0.0 | 0.00 | 0.23 | 0.00 | 90 | 1015.5 |
| 20260905043028 | 78 | 34 | 0.0 | 0.0 | 0.00 | 0.23 | 0.00 | 89 | 1015.4 |
| 20260905041529 | 79 | 34 | 0.0 | 0.0 | 0.00 | 0.23 | 0.00 | 89 | 1015.3 |
| 20260905040039 | 79 | 34 | 0.0 | 0.0 | 0.00 | 0.23 | 0.00 | 90 | 1015.6 |
| 20260905034518 | 79 | 34 | 0.0 | 0.0 | 0.00 | 0.23 | 0.23 | 90 | 1015.5 |
| 20260905033041 | 79 | 34 | 0.0 | 0.0 | 0.00 | 0.23 | 0.23 | 90 | 1015.6 |
| 20260905031528 | 79 | 34 | 0.0 | 0.0 | 0.00 | 0.23 | 0.23 | 90 | 1015.7 |
| 20260905030012 | 79 | 34 | 0.0 | 0.0 | 0.00 | 0.23 | 0.23 | 89 | 1015.9 |
| 20260905024515 | 79 | 34 | 0.0 | 0.0 | 0.00 | 0.23 | 0.23 | 89 | 1015.9 |
| 20260905023052 | 80 | 34 | 0.0 | 0.0 | 0.00 | 0.23 | 0.23 | 88 | 1015.9 |
| 20260905021503 | 80 | 34 | 0.0 | 0.0 | 0.00 | 0.23 | 0.23 | 88 | 1015.8 |
| 20260905020012 | 80 | 34 | 0.0 | 2.0 | 0.00 | 0.23 | 0.23 | 88 | 1015.9 |
| 20260905014511 | 80 | 66 | 0.0 | 2.0 | 0.00 | 0.23 | 0.23 | 88 | 1015.7 |
| 20260905013025 | 81 | 82 | 0.0 | 2.0 | 0.00 | 0.23 | 0.23 | 89 | 1015.4 |
| 20260905011526 | 81 | 84 | 0.0 | 0.0 | 0.00 | 0.23 | 0.23 | 88 | 1015.6 |
| 20260905010004 | 81 | 84 | 0.0 | 2.0 | 0.00 | 0.23 | 0.23 | 87 | 1015.5 |
| 20260905004509 | 81 | 107 | 0.0 | 2.0 | 0.00 | 0.23 | 0.23 | 86 | 1015.2 |
| 20260905003014 | 81 | 107 | 0.0 | 1.0 | 0.00 | 0.23 | 0.23 | 86 | 1014.9 |
| 20260905001523 | 81 | 107 | 0.0 | 2.0 | 0.00 | 0.23 | 0.23 | 86 | 1014.5 |
| 20260905000004 | 81 | 107 | 0.0 | 0.0 | 0.00 | 0.23 | 0.23 | 85 | 1014.2 |
| 20260904234507 | 81 | 107 | 0.0 | 1.0 | 0.00 | 0.23 | 0.23 | 84 | 1014.1 |
| 20260904233014 | 81 | 74 | 0.0 | 0.0 | 0.00 | 0.23 | 0.23 | 84 | 1014.1 |
| 20260904231519 | 81 | 74 | 0.0 | 0.0 | 0.00 | 0.23 | 0.23 | 85 | 1014.0 |
| 20260904230026 | 81 | 74 | 0.0 | 0.0 | 0.00 | 0.23 | 0.23 | 85 | 1014.1 |
| 20260904224504 | 81 | 74 | 0.0 | 0.0 | 0.00 | 0.23 | 0.23 | 85 | 1014.3 |
| 20260904223012 | 81 | 74 | 0.0 | 1.0 | 0.00 | 0.23 | 0.23 | 84 | 1014.3 |
| 20260904221519 | 81 | 74 | 0.0 | 0.0 | 0.00 | 0.23 | 0.23 | 85 | 1014.3 |
| 20260904220034 | 81 | 74 | 0.0 | 0.0 | 0.00 | 0.23 | 0.23 | 86 | 1014.4 |
| 20260904214530 | 80 | 74 | 0.0 | 0.0 | 0.00 | 0.23 | 0.23 | 86 | 1014.6 |